[[[{"header":{"parameterUnit":"kt","parameterCategory":2,"dx":1,"dy":1,"la1":30.253999710083008,"la2":30.299108505249023,"lo1":-89.0895004272461,"lo2":-89.04439544677734,"nx":28,"ny":28,"refTime":"2022-10-30T21:00:00:Z","depth":0,"parameterNumber":1,"parameterNumberName":"U-component_of_WINDS"},"data":[-0.2435,-0.2469,-0.2477,-0.2521,-0.2535,-0.2567,-0.2581,-0.26,-0.2617,-0.2656,-0.268,-0.2692,-0.2713,-0.2744,-0.2771,-0.2776,-0.2787,-0.2794,-0.2799,-0.2762,-0.2758,-0.2754,-0.2746,-0.2796,-0.2796,-0.2835,-0.2836,-0.2836,-0.2407,-0.2422,-0.2447,-0.2477,-0.2499,-0.2498,-0.2522,-0.254,-0.2569,-0.259,-0.2614,-0.2649,-0.2678,-0.2698,-0.2728,-0.2745,-0.2746,-0.2752,-0.2752,-0.2755,-0.2716,-0.2708,-0.2751,-0.2751,-0.2751,-0.2751,-0.275,-0.275,-0.236,-0.238,-0.2403,-0.243,-0.2448,-0.2468,-0.2489,-0.2503,-0.2528,-0.256,-0.2565,-0.2597,-0.2621,-0.2661,-0.2677,-0.2703,-0.2698,-0.2707,-0.271,-0.2712,-0.2714,-0.2656,-0.2708,-0.2708,-0.2708,-0.2708,-0.2708,0,-0.2328,-0.2333,-0.2358,-0.2385,-0.2405,-0.2427,-0.2449,-0.2462,-0.2477,-0.2497,-0.2528,-0.2547,-0.2584,-0.2615,-0.2644,-0.2659,-0.2661,-0.2662,-0.2669,-0.2667,-0.2661,-0.2665,-0.2602,-0.2661,-0.266,-0.266,-0.266,-0.266,-0.2281,-0.2304,-0.2331,-0.2348,-0.2361,-0.2388,-0.2405,-0.2416,-0.2434,-0.2463,-0.2481,-0.2511,-0.2535,-0.2583,-0.2601,-0.2629,-0.2631,-0.2652,-0.2635,-0.2632,-0.2632,-0.2631,-0.2634,-0.2656,-0.2656,-0.2656,-0.2657,0,-0.2255,-0.2267,-0.2305,-0.233,-0.2337,-0.2361,-0.2383,-0.2404,-0.2415,-0.2446,-0.2454,-0.2473,-0.2503,-0.2517,-0.2554,-0.2561,-0.2601,-0.2601,-0.2593,-0.2594,-0.2615,-0.2613,-0.268,-0.269,-0.2637,-0.2638,-0.2638,0,-0.222,-0.225,-0.2267,-0.2288,-0.2322,-0.2332,-0.2365,-0.2378,-0.2398,-0.2422,-0.2426,-0.2449,-0.2463,-0.2489,-0.2498,-0.2534,-0.254,-0.2548,-0.255,-0.2548,-0.2547,-0.2559,-0.2557,-0.2554,-0.2553,-0.2553,-0.2553,0,-0.2177,-0.2221,-0.2255,-0.2268,-0.2298,-0.2314,-0.2327,-0.235,-0.2367,-0.2391,-0.2403,-0.2431,-0.2446,-0.2468,-0.2481,-0.2469,-0.2524,-0.251,-0.2532,-0.2532,-0.2544,-0.2543,-0.2598,-0.2552,-0.2552,-0.2552,-0.2552,0,-0.2152,-0.2176,-0.2223,-0.2248,-0.226,-0.2282,-0.231,-0.2333,-0.2357,-0.2364,-0.2383,-0.2388,-0.2419,-0.2405,-0.2448,-0.2429,-0.2445,-0.2455,-0.2457,-0.2461,-0.2445,-0.2474,-0.2524,-0.253,-0.2464,-0.2463,-0.2463,0,-0.21,-0.2151,-0.216,-0.2206,-0.2231,-0.2233,-0.2259,-0.228,-0.2292,-0.2316,-0.2329,-0.2357,-0.2349,-0.2359,-0.2379,-0.2394,-0.2419,-0.2391,-0.2428,-0.2429,-0.2422,-0.2468,-0.2472,-0.2511,-0.2454,-0.2454,-0.2455,0,-0.2061,-0.2097,-0.2104,-0.2119,-0.2147,-0.2169,-0.2198,-0.2227,-0.2243,-0.2265,-0.2291,-0.233,-0.2326,-0.2343,-0.235,-0.237,-0.2403,-0.2363,-0.2364,-0.237,-0.245,-0.2454,-0.246,-0.2403,-0.2404,-0.2405,-0.2448,0,-0.2021,-0.2049,-0.2069,-0.21,-0.2119,-0.2147,-0.2161,-0.2179,-0.2184,-0.2195,-0.2233,-0.2254,-0.2285,-0.2295,-0.23,-0.2341,-0.2336,-0.2332,-0.2319,-0.2349,-0.2363,-0.2369,-0.2296,-0.2296,-0.2296,-0.2295,0,0,-0.1969,-0.2008,-0.2017,-0.2045,-0.2062,-0.2063,-0.2093,-0.211,-0.2143,-0.2154,-0.2147,-0.2205,-0.2223,-0.2267,-0.2277,-0.2289,-0.2299,-0.2288,-0.2334,-0.2338,-0.2342,-0.2358,-0.2364,-0.2295,-0.2295,-0.2295,-0.2295,0,-0.1957,-0.1973,-0.2002,-0.2019,-0.2045,-0.2056,-0.2062,-0.2088,-0.2097,-0.2134,-0.2136,-0.216,-0.2206,-0.2225,-0.224,-0.2282,-0.2283,-0.229,-0.2308,-0.2331,-0.2336,-0.234,-0.2356,-0.2361,-0.2294,-0.2294,-0.2294,0,-0.1922,-0.1941,-0.1956,-0.1992,-0.2009,-0.2036,-0.2026,-0.2054,-0.2074,-0.2076,-0.2112,-0.2126,-0.2152,-0.2191,-0.2209,-0.2204,-0.2268,-0.225,-0.2252,-0.2255,-0.2278,-0.2283,-0.2288,-0.2224,-0.2224,-0.2224,0,0,-0.1911,-0.1936,-0.1959,-0.1991,-0.2001,-0.2018,-0.2034,-0.2039,-0.2062,-0.2071,-0.2089,-0.2111,-0.2138,-0.2156,-0.2182,-0.2223,-0.223,-0.2241,-0.2244,-0.2247,-0.2251,-0.2275,-0.228,-0.2223,-0.2223,-0.2223,0,0,-0.1905,-0.1934,-0.1934,-0.1972,-0.1993,-0.2019,-0.2039,-0.2039,-0.2064,-0.2063,-0.2075,-0.2081,-0.2118,-0.2132,-0.2115,-0.2178,-0.2166,-0.217,-0.2168,-0.2172,-0.2176,-0.2172,-0.2108,0,0,0,0,0,-0.1901,-0.193,-0.193,-0.1938,-0.1985,-0.2019,-0.2025,-0.2035,-0.2026,-0.2041,-0.2056,-0.2056,-0.2125,-0.211,-0.2119,-0.2139,-0.2208,-0.221,-0.2213,-0.222,-0.2225,-0.2228,0,0,0,0,0,0,-0.1904,-0.1914,-0.1929,-0.1956,-0.1966,-0.2018,-0.2005,-0.2008,-0.2025,-0.2024,-0.2053,-0.2057,-0.2066,-0.2106,-0.2114,-0.2133,-0.2106,-0.2209,-0.2211,-0.2213,-0.2222,-0.2225,-0.2228,0,0,0,0,0,-0.1907,-0.1915,-0.1987,-0.1955,-0.1965,-0.1985,-0.2004,-0.2006,-0.2019,-0.2043,-0.2047,-0.2025,-0.2067,-0.2074,-0.2111,-0.2129,-0.21,-0.2103,-0.221,-0.2212,-0.2214,-0.2223,0,0,0,0,0,0,-0.1909,-0.1918,-0.1989,-0.1992,-0.1945,-0.1982,-0.1988,-0.2005,-0.2038,-0.2042,-0.2016,-0.2015,-0.2067,-0.2073,-0.2078,-0.2127,-0.2096,-0.2099,-0.2101,-0.2212,-0.2213,-0.2214,0,0,0,0,0,0,-0.1914,-0.1921,-0.1991,-0.1977,-0.1979,-0.198,-0.1985,-0.2018,-0.2038,-0.2009,-0.2009,-0.2015,-0.2059,-0.2072,-0.2076,-0.2128,-0.2093,-0.2096,-0.2098,-0.2099,-0.2213,-0.2214,0,0,0,0,0,0,-0.1917,-0.1923,-0.1976,-0.1977,-0.1979,-0.2016,-0.2009,-0.2057,-0.2025,-0.2008,-0.2023,-0.2021,-0.2059,-0.2063,-0.2075,-0.2125,-0.2127,-0.2093,-0.2095,-0.2096,-0.2097,0,0,0,0,0,0,0,-0.192,-0.1876,-0.197,-0.1978,-0.1979,-0.2022,-0.2023,-0.2024,-0.2025,-0.2024,-0.2023,-0.2022,-0.2077,-0.208,-0.2083,-0.2122,0,0,-0.2093,-0.2094,0,0,0,0,0,0,0,0,-0.1874,-0.1876,-0.197,-0.1971,-0.1971,-0.2022,-0.2023,-0.2023,-0.2025,-0.2024,-0.2023,-0.2022,-0.2078,-0.208,-0.2083,0,0,0,0,0,0,0,0,0,0,0,0,0,0,0,-0.197,-0.1971,0,-0.2022,-0.2023,-0.2023,-0.2025,-0.2024,-0.2023,-0.2023,-0.2078,-0.208,-0.2082,0,0,0,0,0,0,0,0,0,0,0,0,0,0,0,0,0,0,0,0,0,0,0,0,0,0,0,0,0,0,0,0,0,0,0,0,0,0,0,0,0,0,0,0,0,0,0,0,0,0,0,0,0,0,0,0,0,0,0,0,0,0,0,0,0,0,0,0,0]}],[{"header":{"parameterUnit":"kt","parameterCategory":2,"dx":1,"dy":1,"la1":30.253999710083008,"la2":30.299108505249023,"lo1":-89.0895004272461,"lo2":-89.04439544677734,"nx":28,"ny":28,"refTime":"2022-10-30T21:00:00:Z","depth":0,"parameterNumber":2,"parameterNumberName":"V-component_of_WINDS"},"data":[-4.677,-4.6851,-4.6844,-4.6932,-4.694,-4.6999,-4.7017,-4.7039,-4.7054,-4.7122,-4.7158,-4.7157,-4.7167,-4.7207,-4.7246,-4.7243,-4.7261,-4.7296,-4.7288,-4.7137,-4.7116,-4.7095,-4.7076,-4.73,-4.73,-4.7445,-4.7446,-4.7447,-4.6664,-4.6673,-4.6718,-4.6755,-4.6793,-4.6755,-4.678,-4.6814,-4.6866,-4.6885,-4.692,-4.6978,-4.7021,-4.7018,-4.7058,-4.7094,-4.7077,-4.7105,-4.7102,-4.7105,-4.6943,-4.6924,-4.7119,-4.7119,-4.7119,-4.7118,-4.7118,-4.7118,-4.6469,-4.6518,-4.6536,-4.6583,-4.6599,-4.6624,-4.6668,-4.6665,-4.6707,-4.6748,-4.6728,-4.6786,-4.6801,-4.6843,-4.6853,-4.6898,-4.6864,-4.6891,-4.6898,-4.6906,-4.6916,-4.6712,-4.6903,-4.6903,-4.6902,-4.6902,-4.6901,0,-4.6324,-4.6315,-4.6355,-4.6395,-4.6428,-4.6457,-4.6481,-4.6508,-4.648,-4.6515,-4.6565,-4.6591,-4.6643,-4.6687,-4.6721,-4.6725,-4.6686,-4.668,-4.67,-4.6711,-4.6719,-4.6717,-4.6456,-4.6675,-4.6673,-4.6671,-4.667,-4.6669,-4.6128,-4.6185,-4.6198,-4.6228,-4.6239,-4.6287,-4.6313,-4.6284,-4.6313,-4.6337,-4.638,-4.6424,-4.6457,-4.6536,-4.6528,-4.6566,-4.6547,-4.6632,-4.6552,-4.6562,-4.6549,-4.6547,-4.6553,-4.6648,-4.6651,-4.6653,-4.6655,0,-4.6019,-4.6003,-4.6088,-4.6094,-4.6097,-4.6157,-4.6161,-4.6207,-4.6197,-4.6259,-4.6271,-4.6255,-4.6303,-4.6281,-4.633,-4.6317,-4.6415,-4.6395,-4.6411,-4.6406,-4.6481,-4.6475,-4.6725,-4.6757,-4.6523,-4.6526,-4.6528,0,-4.5845,-4.592,-4.5893,-4.5942,-4.6024,-4.5992,-4.6074,-4.6073,-4.6085,-4.6133,-4.6085,-4.6131,-4.6095,-4.6137,-4.6118,-4.6194,-4.6202,-4.6197,-4.6191,-4.6202,-4.6203,-4.6216,-4.6205,-4.6174,-4.6172,-4.6171,-4.617,0,-4.5676,-4.5747,-4.5828,-4.5841,-4.5853,-4.5891,-4.5898,-4.591,-4.5935,-4.5963,-4.5979,-4.6014,-4.6033,-4.6061,-4.6036,-4.5983,-4.6128,-4.6049,-4.6122,-4.6123,-4.6155,-4.6154,-4.6381,-4.6169,-4.6168,-4.6168,-4.6167,0,-4.5533,-4.5564,-4.5682,-4.5692,-4.5711,-4.5763,-4.5796,-4.5835,-4.5851,-4.5842,-4.5864,-4.5828,-4.5892,-4.5816,-4.5903,-4.5842,-4.5863,-4.5863,-4.5868,-4.5872,-4.5788,-4.592,-4.6139,-4.6161,-4.5877,-4.5875,-4.5872,0,-4.5345,-4.5459,-4.5432,-4.5544,-4.5593,-4.5537,-4.5593,-4.5608,-4.5601,-4.5641,-4.5632,-4.5677,-4.5615,-4.5626,-4.5672,-4.5665,-4.5745,-4.5653,-4.571,-4.5713,-4.5709,-4.591,-4.5948,-4.6093,-4.5841,-4.5844,-4.5847,0,-4.5196,-4.521,-4.5231,-4.5245,-4.526,-4.53,-4.5365,-4.5403,-4.5431,-4.5451,-4.5505,-4.5566,-4.5523,-4.554,-4.5514,-4.5563,-4.569,-4.5509,-4.5509,-4.5543,-4.5823,-4.5859,-4.5884,-4.5661,-4.5665,-4.5668,-4.5822,0,-4.4986,-4.504,-4.5097,-4.5128,-4.5155,-4.5222,-4.5199,-4.523,-4.5203,-4.5194,-4.527,-4.5274,-4.531,-4.5331,-4.5304,-4.5423,-4.5399,-4.5351,-4.5275,-4.5407,-4.5457,-4.5477,-4.5203,-4.5201,-4.5199,-4.5197,0,0,-4.481,-4.4886,-4.4852,-4.4914,-4.4935,-4.4874,-4.4948,-4.4961,-4.4988,-4.5003,-4.4961,-4.5048,-4.5052,-4.5147,-4.5186,-4.52,-4.5219,-4.5174,-4.5344,-4.5361,-4.5376,-4.543,-4.5452,-4.5193,-4.5193,-4.5192,-4.5191,0,-4.4728,-4.4736,-4.481,-4.4823,-4.4839,-4.4825,-4.4843,-4.4847,-4.4844,-4.4918,-4.4865,-4.4908,-4.4976,-4.4989,-4.5004,-4.5162,-4.5119,-4.5174,-4.5269,-4.5325,-4.5344,-4.5361,-4.5418,-4.5439,-4.5186,-4.5187,-4.5187,0,-4.4578,-4.4583,-4.4615,-4.4659,-4.4669,-4.4719,-4.4635,-4.4691,-4.4728,-4.4655,-4.4729,-4.4728,-4.4741,-4.4833,-4.4874,-4.4836,-4.5029,-4.4962,-4.4974,-4.4978,-4.5031,-4.5054,-4.5075,-4.4803,-4.4802,-4.4801,0,0,-4.4511,-4.4559,-4.4553,-4.464,-4.4649,-4.4629,-4.4652,-4.4627,-4.4641,-4.4647,-4.4644,-4.4658,-4.4698,-4.4724,-4.476,-4.4865,-4.4865,-4.4916,-4.4934,-4.4949,-4.4961,-4.5018,-4.5041,-4.4796,-4.4796,-4.4796,0,0,-4.4477,-4.4474,-4.4444,-4.4542,-4.4558,-4.4556,-4.4609,-4.4572,-4.4602,-4.4591,-4.4549,-4.4551,-4.4636,-4.4636,-4.4578,-4.4732,-4.4657,-4.4671,-4.4729,-4.4752,-4.477,-4.4768,-4.4489,0,0,0,0,0,-4.4381,-4.4475,-4.4448,-4.446,-4.4514,-4.4571,-4.4578,-4.4546,-4.4495,-4.4538,-4.4529,-4.4481,-4.4596,-4.4544,-4.4556,-4.4621,-4.4737,-4.4747,-4.4757,-4.4857,-4.4881,-4.4901,0,0,0,0,0,0,-4.4386,-4.4401,-4.4445,-4.4448,-4.4459,-4.4568,-4.4473,-4.4467,-4.4489,-4.4479,-4.4484,-4.4481,-4.4454,-4.4535,-4.4547,-4.4609,-4.4485,-4.4741,-4.475,-4.4758,-4.4865,-4.4885,-4.4902,0,0,0,0,0,-4.4389,-4.4402,-4.4496,-4.4446,-4.4456,-4.4437,-4.447,-4.4464,-4.448,-4.4466,-4.4461,-4.4454,-4.4457,-4.4464,-4.4542,-4.4605,-4.4477,-4.4481,-4.4747,-4.4754,-4.476,-4.4875,0,0,0,0,0,0,-4.4392,-4.4396,-4.4497,-4.4499,-4.4408,-4.443,-4.4432,-4.4461,-4.4464,-4.4461,-4.4433,-4.4425,-4.446,-4.4465,-4.4471,-4.4605,-4.447,-4.4475,-4.4478,-4.4752,-4.4758,-4.4762,0,0,0,0,0,0,-4.4389,-4.4398,-4.4498,-4.4452,-4.4448,-4.4424,-4.4426,-4.4487,-4.4465,-4.4431,-4.4425,-4.443,-4.445,-4.4466,-4.447,-4.4566,-4.4465,-4.4469,-4.4472,-4.4474,-4.4757,-4.4761,0,0,0,0,0,0,-4.4392,-4.44,-4.4451,-4.4448,-4.4445,-4.4463,-4.4476,-4.4532,-4.4427,-4.4432,-4.4417,-4.4412,-4.4452,-4.4456,-4.447,-4.4565,-4.4566,-4.4465,-4.4468,-4.447,-4.4472,0,0,0,0,0,0,0,-4.4395,-4.4351,-4.4486,-4.4445,-4.4442,-4.4516,-4.4516,-4.4517,-4.4426,-4.4422,-4.4418,-4.4414,-4.444,-4.4445,-4.445,-4.4563,0,0,-4.4465,-4.4467,0,0,0,0,0,0,0,0,-4.4347,-4.435,-4.4486,-4.4487,-4.4487,-4.4516,-4.4516,-4.4517,-4.4426,-4.4422,-4.4419,-4.4416,-4.4441,-4.4445,-4.4449,0,0,0,0,0,0,0,0,0,0,0,0,0,0,0,-4.4486,-4.4487,0,-4.4516,-4.4516,-4.4517,-4.4425,-4.4422,-4.442,-4.4417,-4.4443,-4.4446,-4.4449,0,0,0,0,0,0,0,0,0,0,0,0,0,0,0,0,0,0,0,0,0,0,0,0,0,0,0,0,0,0,0,0,0,0,0,0,0,0,0,0,0,0,0,0,0,0,0,0,0,0,0,0,0,0,0,0,0,0,0,0,0,0,0,0,0,0,0,0,0]}]]]